Project,Study,Ord_Occ,Event_Num,Cast_ID,Date_Time_UTC,Date_Time_PST,Lat_Dec,Lon_Dec,Sta_ID,Line,Sta,Depth,Pressure,PrQ,Temp1,Temp1Q,Temp2,Temp2Q,TempAve,Salt1,Salt1Q,Salt1_Corr,Salt2,Salt2Q,Salt2_Corr,SaltAve_Corr,Ox1,Ox1Q,Ox1_CruiseCorr,Ox1_StaCorr,Ox2,Ox2Q,Ox2_CruiseCorr,Ox2_StaCorr,OxAve_StaCorr,Ox1uM,Ox1uM_CruiseCorr,Ox1uM_StaCorr,Ox2uM,Ox2uM_CruiseCorr,Ox2uM_StaCorr,OxAveuM_StaCorr,FluorV,FluorQ,EstChl_CruiseCorr,EstChl_StaCorr,ISUSV,ISUSQ,EstNO3_CruiseCorr,EstNO3_StaCorr,SigThetaTS1,SigThetaTS1Q,SigThetaTS2,SigThetaTS2Q,BAT,XMiss,TransQ,pH,pHQ,SPAR,SPARQ,PAR,PARQ,PoT1,PoT2,DynHt,SVA,OxSat1,OxSat2,BTL_Depth,BTL_Temp,SaltB,OxB,OxBuM,Chl-a,Phaeo,NO3,NO2,NH4,PO4,SIL
CalCOFI,2007SR,045,47,2007_045u,21-Jul-2020 15:12:32,21-Jul-2020 07:12:32,31.65604,-123.06934,086.7 100.0,086.7,100.0,516.000,520.259,,5.8034,,5.8053,,5.8044,34.2260,,34.2262,34.2278,,34.2294,34.2278,0.4125,,0.4133,0.4498,,,,,,17.938,18.2374,33.2824,,,,,0.0335,,,,-99.0,,-99.0,,26.9712,,26.9723,,0.6354,85.3118,,7.520,,3.3091E+02,,5.4791E-03,,5.7588,5.7607,0.9999,,5.913,,,,,,,,,,,,,
CalCOFI,2007SR,045,47,2007_045u,21-Jul-2020 15:13:20,21-Jul-2020 07:13:20,31.65605,-123.06934,086.7 100.0,086.7,100.0,515.000,519.249,,5.7666,,5.7687,,5.7677,34.2291,,34.2293,34.2302,,34.2318,34.2306,0.4190,,0.4201,0.4566,,,,,,18.223,18.5349,33.5301,,,,,0.0317,,,,0.0242,,0.0000,,26.9781,,26.9787,,0.6349,85.3224,,7.517,,3.2560E+02,,1.0595E-02,,5.7223,5.7245,1.0024,,6.002,,515,5.767,34.2337,0.450,19.65,,,40.29,0.00,0.00,3.12,79.42
CalCOFI,2007SR,045,47,2007_045u,21-Jul-2020 15:13:27,21-Jul-2020 07:13:27,31.65604,-123.06934,086.7 100.0,086.7,100.0,514.000,518.240,,5.7616,,5.7605,,5.7611,34.2287,,34.2289,34.2303,,34.2319,34.2304,0.4089,,0.4096,0.4461,,,,,,17.783,18.0756,33.1477,,,,,0.0323,,,,0.0575,,0.0000,,26.9784,,26.9798,,0.6345,85.3322,,7.515,,3.2363E+02,,9.1420E-03,,5.7174,5.7163,1.0027,,5.856,,,,,,,,,,,,,
CalCOFI,2007SR,045,47,2007_045u,21-Jul-2020 15:13:27,21-Jul-2020 07:13:27,31.65604,-123.06934,086.7 100.0,086.7,100.0,513.000,517.230,,5.7704,,5.7706,,5.7705,34.2291,,34.2293,34.2306,,34.2322,34.2308,0.4129,,0.4137,0.4502,,,,,,17.956,18.2562,33.2981,,,,,0.0326,,,,0.0530,,0.0000,,26.9776,,26.9788,,0.6353,85.3149,,7.515,,3.2373E+02,,7.7993E-03,,5.7263,5.7265,1.0027,,5.914,,,,,,,,,,,,,
CalCOFI,2007SR,045,47,2007_045u,21-Jul-2020 15:13:28,21-Jul-2020 07:13:28,31.65604,-123.06934,086.7 100.0,086.7,100.0,512.000,516.221,,5.7786,,5.7786,,5.7786,34.2287,,34.2289,34.2303,,34.2319,34.2304,0.4163,,0.4173,0.4538,,,,,,18.104,18.4107,33.4267,,,,,0.0326,,,,0.0484,,0.0000,,26.9763,,26.9775,,0.6353,85.3148,,7.515,,3.2498E+02,,1.2300E-02,,5.7345,5.7346,1.0027,,5.964,,,,,,,,,,,,,
CalCOFI,2007SR,045,47,2007_045u,21-Jul-2020 15:13:29,21-Jul-2020 07:13:29,31.65605,-123.06934,086.7 100.0,086.7,100.0,511.000,515.211,,5.7866,,5.7865,,5.7866,34.2276,,34.2278,34.2293,,34.2309,34.2294,0.4212,,0.4224,0.4589,,,,,,18.318,18.6341,33.6126,,,,,0.0326,,,,0.0394,,0.0000,,26.9744,,26.9758,,0.6354,85.3119,,7.515,,3.2724E+02,,9.9236E-03,,5.7426,5.7425,1.0027,,6.036,,,,,,,,,,,,,
CalCOFI,2007SR,045,47,2007_045u,21-Jul-2020 15:13:31,21-Jul-2020 07:13:31,31.65606,-123.06934,086.7 100.0,086.7,100.0,510.000,514.202,,5.7950,,5.7966,,5.7958,34.2267,,34.2269,34.2282,,34.2298,34.2284,0.4171,,0.4181,0.4546,,,,,,18.141,18.4493,33.4588,,,,,0.0334,,,,0.0283,,0.0000,,26.9727,,26.9736,,0.6359,85.3026,,7.515,,3.2737E+02,,1.0858E-03,,5.7511,5.7526,1.0027,,5.978,,,,,,,,,,,,,
CalCOFI,2007SR,045,47,2007_045u,21-Jul-2020 15:13:32,21-Jul-2020 07:13:32,31.65606,-123.06934,086.7 100.0,086.7,100.0,509.000,513.192,,5.8015,,5.8011,,5.8013,34.2258,,34.2260,34.2274,,34.2290,34.2275,0.4201,,0.4213,0.4578,2.1411,,1.1702,0.8167,0.6373,18.270,18.5840,33.5709,93.112,,47.7844,40.6777,0.0330,,,,0.0183,,0.0000,,26.9711,,26.9725,,0.6353,85.3150,,7.515,,3.2560E+02,,4.1746E-03,,5.7576,5.7573,1.0027,,6.022,30.690,,,,,,,,,,,,
CalCOFI,2007SR,045,47,2007_045u,21-Jul-2020 15:13:33,21-Jul-2020 07:13:33,31.65604,-123.06934,086.7 100.0,086.7,100.0,508.000,512.183,,5.8050,,5.8049,,5.8050,34.2257,,34.2259,34.2271,,34.2287,34.2273,0.4265,,0.4279,0.4645,2.1381,,1.1631,0.8089,0.6367,18.547,18.8731,33.8116,92.978,,47.4995,40.6556,0.0330,,,,0.0100,,0.0000,,26.9706,,26.9717,,0.6353,85.3148,,7.515,,3.2368E+02,,8.0802E-03,,5.7612,5.7611,1.0027,,6.114,30.648,,,,,,,,,,,,
CalCOFI,2007SR,045,47,2007_045u,21-Jul-2020 15:13:34,21-Jul-2020 07:13:34,31.65604,-123.06934,086.7 100.0,086.7,100.0,507.000,511.173,,5.8066,,5.8067,,5.8067,34.2255,,34.2257,34.2269,,34.2285,34.2271,0.4217,,0.4229,0.4595,2.1284,,1.1399,0.7838,0.6217,18.337,18.6539,33.6291,92.557,,46.6046,40.1169,0.0328,,,,0.0043,,0.0000,,26.9703,,26.9713,,0.6353,85.3148,,7.515,,3.2373E+02,,5.3842E-03,,5.7629,5.7630,1.0027,,6.045,30.511,,,,,,,,,,,,
CalCOFI,2007SR,045,47,2007_045u,21-Jul-2020 15:13:35,21-Jul-2020 07:13:35,31.65604,-123.06934,086.7 100.0,086.7,100.0,506.000,510.164,,5.8074,,5.8076,,5.8075,34.2255,,34.2257,34.2269,,34.2285,34.2271,0.4213,,0.4225,0.4590,2.1315,,1.1473,0.7918,0.6254,18.320,18.6361,33.6144,92.692,,46.8915,40.2530,0.0330,,,,0.0012,,0.0000,,26.9701,,26.9712,,0.6353,85.3148,,7.515,,3.2373E+02,,1.0660E-02,,5.7638,5.7639,1.0027,,6.039,30.556,,,,,,,,,,,,
CalCOFI,2007SR,045,47,2007_045u,21-Jul-2020 15:13:36,21-Jul-2020 07:13:36,31.65604,-123.06934,086.7 100.0,086.7,100.0,505.000,509.155,,5.8127,,5.8133,,5.8130,34.2253,,34.2255,34.2267,,34.2283,34.2269,0.4275,,0.4290,0.4655,2.1341,,1.1535,0.7985,0.6320,18.589,18.9170,33.8481,92.808,,47.1381,40.4931,0.0332,,,,-99.0,,-99.0,,26.9693,,26.9704,,0.6354,85.3126,,7.515,,3.2373E+02,,3.4690E-03,,5.7692,5.7698,1.0027,,6.129,30.598,,,,,,,,,,,,
CalCOFI,2007SR,045,47,2007_045u,21-Jul-2020 15:13:37,21-Jul-2020 07:13:37,31.65604,-123.06934,086.7 100.0,086.7,100.0,504.000,508.145,,5.8217,,5.8218,,5.8218,34.2244,,34.2246,34.2257,,34.2273,34.2260,0.4275,,0.4290,0.4655,2.1313,,1.1469,0.7913,0.6284,18.592,18.9201,33.8507,92.686,,46.8788,40.3648,0.0323,,,,5.2110E-07,,0.0000,,26.9675,,26.9685,,0.6353,85.3148,,7.515,,3.2425E+02,,7.4219E-04,,5.7782,5.7783,1.0027,,6.131,30.564,,,,,,,,,,,,
CalCOFI,2007SR,045,47,2007_045u,21-Jul-2020 15:13:38,21-Jul-2020 07:13:38,31.65606,-123.06934,086.7 100.0,086.7,100.0,503.000,507.136,,5.8301,,5.8311,,5.8306,34.2237,,34.2239,34.2252,,34.2268,34.2254,0.4265,,0.4279,0.4645,2.1228,,1.1266,0.7693,0.6169,18.546,18.8721,33.8108,92.316,,46.0922,39.9515,0.0323,,,,-99.0,,-99.0,,26.9659,,26.9670,,0.6353,85.3148,,7.515,,3.2560E+02,,1.8469E-03,,5.7867,5.7876,1.0027,,6.117,30.448,,,,,,,,,,,,
CalCOFI,2007SR,045,47,2007_045u,21-Jul-2020 15:13:39,21-Jul-2020 07:13:39,31.65606,-123.06934,086.7 100.0,086.7,100.0,502.000,506.126,,5.8365,,5.8362,,5.8364,34.2232,,34.2234,34.2247,,34.2263,34.2249,0.4363,,0.4382,0.4747,2.1267,,1.1359,0.7794,0.6271,18.975,19.3199,34.1836,92.484,,46.4494,40.3165,0.0325,,,,-99.0,,-99.0,,26.9647,,26.9659,,0.6353,85.3148,,7.515,,3.2610E+02,,1.2602E-03,,5.7932,5.7928,1.0027,,6.259,30.508,,,,,,,,,,,,
CalCOFI,2007SR,045,47,2007_045u,21-Jul-2020 15:13:40,21-Jul-2020 07:13:40,31.65606,-123.06934,086.7 100.0,086.7,100.0,501.000,505.117,,5.8439,,5.8432,,5.8436,34.2220,,34.2222,34.2238,,34.2254,34.2238,0.4414,,0.4435,0.4801,2.1192,,1.1180,0.7600,0.6201,19.197,19.5516,34.3765,92.159,,45.7585,40.0675,0.0328,,,,-99.0,,-99.0,,26.9629,,26.9643,,0.6353,85.3148,,7.514,,3.2520E+02,,9.4622E-04,,5.8006,5.7999,1.0027,,6.333,30.405,,,,,,,,,,,,
CalCOFI,2007SR,045,47,2007_045u,21-Jul-2020 15:13:41,21-Jul-2020 07:13:41,31.65606,-123.06934,086.7 100.0,086.7,100.0,500.000,504.107,,5.8482,,5.8481,,5.8482,34.2205,,34.2207,34.2220,,34.2236,34.2222,0.4504,,0.4529,0.4895,2.1178,,1.1146,0.7563,0.6229,19.585,19.9567,34.7136,92.097,,45.6267,40.1702,0.0325,,,,-99.0,,-99.0,,26.9611,,26.9623,,0.6360,85.2994,,7.514,,3.2372E+02,,-5.470E-06,,5.8050,5.8049,1.0027,,6.462,30.388,,,,,,,,,,,,
CalCOFI,2007SR,045,47,2007_045u,21-Jul-2020 15:13:42,21-Jul-2020 07:13:42,31.65606,-123.06934,086.7 100.0,086.7,100.0,499.000,503.098,,5.8794,,5.8784,,5.8789,34.2182,,34.2184,34.2200,,34.2216,34.2200,0.4517,,0.4543,0.4909,2.1181,,1.1153,0.7571,0.6240,19.643,20.0172,34.7640,92.110,,45.6543,40.2092,0.0325,,,,-99.0,,-99.0,,26.9554,,26.9569,,0.6361,85.2987,,7.514,,3.2234E+02,,1.3301E-04,,5.8362,5.8352,1.0027,,6.486,30.413,,,,,,,,,,,,
CalCOFI,2007SR,045,47,2007_045u,21-Jul-2020 15:13:43,21-Jul-2020 07:13:43,31.65606,-123.06934,086.7 100.0,086.7,100.0,498.000,502.088,,5.8953,,5.8959,,5.8956,34.2149,,34.2151,34.2162,,34.2178,34.2165,0.4517,,0.4543,0.4909,2.1182,,1.1156,0.7574,0.6242,19.641,20.0151,34.7623,92.115,,45.6649,40.2136,0.0330,,,,-99.0,,-99.0,,26.9508,,26.9518,,0.6354,85.3119,,7.514,,3.2260E+02,,6.3445E-04,,5.8520,5.8526,1.0027,,6.487,30.426,,,,,,,,,,,,
CalCOFI,2007SR,045,47,2007_045u,21-Jul-2020 15:13:44,21-Jul-2020 07:13:44,31.65606,-123.06934,086.7 100.0,086.7,100.0,497.000,501.079,,5.8912,,5.8876,,5.8894,34.2151,,34.2153,34.2167,,34.2183,34.2168,0.4567,,0.4595,0.4961,2.1184,,1.1161,0.7579,0.6270,19.860,20.2438,34.9526,92.124,,45.6841,40.3184,0.0323,,,,-99.0,,-99.0,,26.9515,,26.9532,,0.6354,85.3120,,7.515,,3.2374E+02,,-3.610E-06,,5.8480,5.8445,1.0027,,6.559,30.423,,,,,,,,,,,,
CalCOFI,2007SR,045,47,2007_045u,21-Jul-2020 15:13:45,21-Jul-2020 07:13:45,31.65606,-123.06934,086.7 100.0,086.7,100.0,496.000,500.070,,5.8848,,5.8850,,5.8849,34.2173,,34.2175,34.2185,,34.2201,34.2188,0.4549,,0.4576,0.4942,2.1153,,1.1087,0.7499,0.6221,19.782,20.1623,34.8848,91.989,,45.3971,40.1410,0.0321,,,,-99.0,,-99.0,,26.9540,,26.9549,,0.6364,85.2919,,7.515,,3.2373E+02,,1.4065E-03,,5.8418,5.8420,1.0027,,6.533,30.377,,,,,,,,,,,,
CalCOFI,2007SR,045,47,2007_045u,21-Jul-2020 15:13:46,21-Jul-2020 07:13:46,31.65606,-123.06934,086.7 100.0,086.7,100.0,495.000,499.060,,5.9016,,5.9034,,5.9025,34.2145,,34.2147,34.2162,,34.2178,34.2163,0.4535,,0.4562,0.4927,2.1074,,1.0898,0.7294,0.6111,19.723,20.1007,34.8335,91.646,,44.6679,39.7507,0.0325,,,,-99.0,,-99.0,,26.9497,,26.9508,,0.6358,85.3040,,7.515,,3.2373E+02,,2.7000E-04,,5.8586,5.8604,1.0027,,6.515,30.276,,,,,,,,,,,,
CalCOFI,2007SR,045,47,2007_045u,21-Jul-2020 15:13:47,21-Jul-2020 07:13:47,31.65606,-123.06934,086.7 100.0,086.7,100.0,494.000,498.051,,5.8967,,5.8993,,5.8980,34.2156,,34.2158,34.2165,,34.2181,34.2170,0.4550,,0.4577,0.4943,2.1114,,1.0993,0.7398,0.6171,19.786,20.1665,34.8883,91.821,,45.0400,39.9642,0.0322,,,,-99.0,,-99.0,,26.9512,,26.9515,,0.6356,85.3081,,7.514,,3.2373E+02,,-1.065E-05,,5.8538,5.8565,1.0027,,6.535,30.332,,,,,,,,,,,,
CalCOFI,2007SR,045,47,2007_045u,21-Jul-2020 15:13:48,21-Jul-2020 07:13:48,31.65606,-123.06934,086.7 100.0,086.7,100.0,493.000,497.041,,5.9040,,5.9045,,5.9043,34.2146,,34.2148,34.2163,,34.2179,34.2164,0.4520,,0.4546,0.4912,2.1086,,1.0927,0.7325,0.6119,19.657,20.0318,34.7762,91.698,,44.7785,39.7774,0.0333,,,,-99.0,,-99.0,,26.9494,,26.9507,,0.6353,85.3149,,7.515,,3.2373E+02,,1.0000E-12,,5.8612,5.8617,1.0027,,6.494,30.294,,,,,,,,,,,,
CalCOFI,2007SR,045,47,2007_045u,21-Jul-2020 15:13:49,21-Jul-2020 07:13:49,31.65606,-123.06934,086.7 100.0,086.7,100.0,492.000,496.032,,5.9096,,5.9111,,5.9104,34.2140,,34.2142,34.2149,,34.2165,34.2154,0.4519,,0.4545,0.4911,2.1050,,1.0841,0.7232,0.6072,19.654,20.0287,34.7736,91.541,,44.4447,39.6092,0.0330,,,,-99.0,,-99.0,,26.9483,,26.9488,,0.6354,85.3137,,7.514,,3.2373E+02,,1.2411E-05,,5.8668,5.8683,1.0027,,6.494,30.247,,,,,,,,,,,,
CalCOFI,2007SR,045,47,2007_045u,21-Jul-2020 15:13:50,21-Jul-2020 07:13:50,31.65606,-123.06934,086.7 100.0,086.7,100.0,491.000,495.023,,5.9025,,5.9036,,5.9031,34.2156,,34.2158,34.2167,,34.2183,34.2171,0.4550,,0.4577,0.4943,2.1004,,1.0731,0.7113,0.6028,19.787,20.1675,34.8892,91.341,,44.0196,39.4544,0.0325,,,,-99.0,,-99.0,,26.9504,,26.9511,,0.6358,85.3046,,7.515,,3.2373E+02,,1.3066E-04,,5.8599,5.8609,1.0027,,6.536,30.176,,,,,,,,,,,,
CalCOFI,2007SR,045,47,2007_045u,21-Jul-2020 15:13:51,21-Jul-2020 07:13:51,31.65606,-123.06934,086.7 100.0,086.7,100.0,490.000,494.013,,5.9126,,5.9125,,5.9126,34.2149,,34.2151,34.2164,,34.2180,34.2166,0.4672,,0.4705,0.5071,2.1051,,1.0843,0.7235,0.6153,20.315,20.7187,35.3480,91.548,,44.4596,39.9038,0.0325,,,,-99.0,,-99.0,,26.9486,,26.9498,,0.6356,85.3094,,7.516,,3.2373E+02,,-3.302E-07,,5.8700,5.8699,1.0027,,6.713,30.251,,,,,,,,,,,,
CalCOFI,2007SR,045,47,2007_045u,21-Jul-2020 15:13:52,21-Jul-2020 07:13:52,31.65606,-123.06934,086.7 100.0,086.7,100.0,489.000,493.004,,5.9216,,5.9221,,5.9219,34.2143,,34.2145,34.2154,,34.2170,34.2158,0.4813,,0.4852,0.5218,2.1039,,1.0814,0.7204,0.6211,20.930,21.3607,35.8824,91.494,,44.3448,40.1136,0.0335,,,,-99.0,,-99.0,,26.9470,,26.9478,,0.6353,85.3138,,7.516,,3.2373E+02,,1.0000E-12,,5.8791,5.8796,1.0027,,6.917,30.239,,,,,,,,,,,,
CalCOFI,2007SR,045,47,2007_045u,21-Jul-2020 15:13:53,21-Jul-2020 07:13:53,31.65606,-123.06934,086.7 100.0,086.7,100.0,488.000,491.994,,5.9302,,5.9298,,5.9300,34.2127,,34.2129,34.2142,,34.2158,34.2144,0.4849,,0.4890,0.5256,2.1035,,1.0805,0.7193,0.6225,21.088,21.5257,36.0197,91.477,,44.3087,40.1642,0.0329,,,,-99.0,,-99.0,,26.9446,,26.9458,,0.6359,85.3020,,7.516,,3.2373E+02,,1.0000E-12,,5.8877,5.8874,1.0027,,6.971,30.239,,,,,,,,,,,,
CalCOFI,2007SR,045,47,2007_045u,21-Jul-2020 15:13:54,21-Jul-2020 07:13:54,31.65606,-123.06934,086.7 100.0,086.7,100.0,487.000,490.985,,5.9378,,5.9375,,5.9377,34.2057,,34.2059,34.2073,,34.2089,34.2074,0.4870,,0.4912,0.5278,2.1029,,1.0791,0.7178,0.6228,21.177,21.6186,36.0970,91.451,,44.2534,40.1752,0.0321,,,,-99.0,,-99.0,,26.9381,,26.9395,,0.6357,85.3054,,7.518,,3.2373E+02,,1.0000E-12,,5.8954,5.8951,1.0027,,7.001,30.234,,,,,,,,,,,,
CalCOFI,2007SR,045,47,2007_045u,21-Jul-2020 15:13:55,21-Jul-2020 07:13:55,31.65606,-123.06934,086.7 100.0,086.7,100.0,486.000,489.976,,5.9346,,5.9345,,5.9346,34.2070,,34.2072,34.2085,,34.2101,34.2087,0.4928,,0.4972,0.5339,2.1001,,1.0724,0.7105,0.6222,21.431,21.8837,36.3178,91.330,,43.9962,40.1570,0.0323,,,,-99.0,,-99.0,,26.9396,,26.9407,,0.6355,85.3095,,7.518,,3.2373E+02,,1.0000E-12,,5.8923,5.8922,1.0027,,7.085,30.192,,,,,,,,,,,,
CalCOFI,2007SR,045,47,2007_045u,21-Jul-2020 15:13:56,21-Jul-2020 07:13:56,31.65606,-123.06934,086.7 100.0,086.7,100.0,485.000,488.966,,5.9311,,5.9334,,5.9323,34.2064,,34.2066,34.2069,,34.2085,34.2076,0.4963,,0.5009,0.5376,2.0925,,1.0542,0.6909,0.6143,21.584,22.0434,36.4507,91.000,,43.2947,39.8727,0.0330,,,,-99.0,,-99.0,,26.9395,,26.9396,,0.6349,85.3225,,7.519,,3.2345E+02,,1.0000E-12,,5.8889,5.8912,1.0027,,7.134,30.082,,,,,,,,,,,,
CalCOFI,2007SR,045,47,2007_045u,21-Jul-2020 15:13:57,21-Jul-2020 07:13:57,31.65606,-123.06934,086.7 100.0,086.7,100.0,484.000,487.957,,5.9314,,5.9316,,5.9315,34.2059,,34.2061,34.2072,,34.2088,34.2075,0.5015,,0.5063,0.5430,2.1003,,1.0728,0.7110,0.6270,21.810,22.2794,36.6471,91.340,,44.0174,40.3323,0.0324,,,,-99.0,,-99.0,,26.9391,,26.9401,,0.6353,85.3146,,7.519,,3.2178E+02,,1.0000E-12,,5.8893,5.8895,1.0027,,7.209,30.193,,,,,,,,,,,,
CalCOFI,2007SR,045,47,2007_045u,21-Jul-2020 15:13:58,21-Jul-2020 07:13:58,31.65606,-123.06934,086.7 100.0,086.7,100.0,483.000,486.948,,5.9334,,5.9336,,5.9335,34.2042,,34.2044,34.2056,,34.2072,34.2058,0.5086,,0.5137,0.5504,2.0948,,1.0597,0.6968,0.6236,22.120,22.6030,36.9165,91.098,,43.5030,40.2098,0.0329,,,,-99.0,,-99.0,,26.9375,,26.9385,,0.6350,85.3215,,7.519,,3.2182E+02,,1.0000E-12,,5.8914,5.8916,1.0027,,7.312,30.114,,,,,,,,,,,,
CalCOFI,2007SR,045,47,2007_045u,21-Jul-2020 15:13:59,21-Jul-2020 07:13:59,31.65606,-123.06934,086.7 100.0,086.7,100.0,482.000,485.938,,5.9333,,5.9367,,5.9350,34.2038,,34.2040,34.2044,,34.2060,34.2050,0.5127,,0.5180,0.5547,2.0976,,1.0664,0.7041,0.6294,22.296,22.7867,37.0694,91.224,,43.7708,40.4201,0.0337,,,,-99.0,,-99.0,,26.9371,,26.9372,,0.6347,85.3282,,7.519,,3.2057E+02,,1.0000E-12,,5.8914,5.8948,1.0027,,7.370,30.158,,,,,,,,,,,,
CalCOFI,2007SR,045,47,2007_045u,21-Jul-2020 15:14:00,21-Jul-2020 07:14:00,31.65606,-123.06934,086.7 100.0,086.7,100.0,481.000,484.929,,5.9463,,5.9526,,5.9495,34.2008,,34.2010,34.2006,,34.2022,34.2016,0.5133,,0.5186,0.5553,2.0953,,1.0609,0.6981,0.6267,22.323,22.8149,37.0929,91.120,,43.5498,40.3214,0.0323,,,,-99.0,,-99.0,,26.9331,,26.9322,,0.6353,85.3151,,7.519,,3.2179E+02,,1.0000E-12,,5.9044,5.9107,1.0027,,7.381,30.134,,,,,,,,,,,,
CalCOFI,2007SR,045,47,2007_045u,21-Jul-2020 15:14:01,21-Jul-2020 07:14:01,31.65606,-123.06934,086.7 100.0,086.7,100.0,480.000,483.919,,5.9484,,5.9502,,5.9493,34.1990,,34.1992,34.1994,,34.2010,34.2001,0.5148,,0.5202,0.5569,2.0980,,1.0674,0.7051,0.6310,22.386,22.8806,37.1476,91.238,,43.8006,40.4741,0.0328,,,,-99.0,,-99.0,,26.9315,,26.9316,,0.6345,85.3318,,7.519,,3.2353E+02,,1.0000E-12,,5.9066,5.9084,1.0027,,7.403,30.171,,,,,,,,,,,,
CalCOFI,2007SR,045,47,2007_045u,21-Jul-2020 15:14:02,21-Jul-2020 07:14:02,31.65606,-123.06934,086.7 100.0,086.7,100.0,479.000,482.910,,5.9373,,5.9393,,5.9383,34.1989,,34.1991,34.1996,,34.2012,34.2002,0.5183,,0.5239,0.5606,2.0948,,1.0597,0.6968,0.6287,22.542,23.0435,37.2832,91.099,,43.5051,40.3942,0.0333,,,,-99.0,,-99.0,,26.9328,,26.9330,,0.6352,85.3164,,7.519,,3.2373E+02,,1.0000E-12,,5.8956,5.8976,1.0027,,7.452,30.117,,,,,,,,,,,,
CalCOFI,2007SR,045,47,2007_045u,21-Jul-2020 15:14:03,21-Jul-2020 07:14:03,31.65606,-123.06934,086.7 100.0,086.7,100.0,478.000,481.901,,5.9315,,5.9322,,5.9319,34.1977,,34.1979,34.1989,,34.2005,34.1992,0.5225,,0.5283,0.5650,2.0953,,1.0609,0.6981,0.6316,22.723,23.2324,37.4405,91.123,,43.5561,40.4983,0.0322,,,,-99.0,,-99.0,,26.9325,,26.9333,,0.6344,85.3339,,7.519,,3.2212E+02,,1.0000E-12,,5.8900,5.8906,1.0027,,7.511,30.120,,,,,,,,,,,,
CalCOFI,2007SR,045,47,2007_045u,21-Jul-2020 15:14:05,21-Jul-2020 07:14:05,31.65606,-123.06934,086.7 100.0,086.7,100.0,477.000,480.892,,5.9358,,5.9368,,5.9363,34.1971,,34.1973,34.1984,,34.2000,34.1987,0.5225,,0.5283,0.5650,2.0951,,1.0604,0.6976,0.6313,22.721,23.2304,37.4387,91.112,,43.5328,40.4858,0.0321,,,,-99.0,,-99.0,,26.9315,,26.9324,,0.6345,85.3323,,7.519,,3.1989E+02,,1.0000E-12,,5.8943,5.8953,1.0027,,7.511,30.119,,,,,,,,,,,,
CalCOFI,2007SR,045,47,2007_045u,21-Jul-2020 15:14:06,21-Jul-2020 07:14:06,31.65606,-123.06934,086.7 100.0,086.7,100.0,476.000,479.882,,5.9519,,5.9533,,5.9526,34.1980,,34.1982,34.1995,,34.2011,34.1997,0.5260,,0.5319,0.5686,2.0941,,1.0580,0.6950,0.6318,22.876,23.3922,37.5734,91.069,,43.4413,40.5074,0.0326,,,,-99.0,,-99.0,,26.9301,,26.9311,,0.6342,85.3385,,7.519,,3.1992E+02,,1.0000E-12,,5.9105,5.9119,1.0027,,7.565,30.117,,,,,,,,,,,,
CalCOFI,2007SR,045,47,2007_045u,21-Jul-2020 15:14:07,21-Jul-2020 07:14:07,31.65606,-123.06934,086.7 100.0,086.7,100.0,475.000,478.873,,5.9615,,5.9619,,5.9617,34.1968,,34.1970,34.1981,,34.1997,34.1984,0.5288,,0.5348,0.5716,2.0934,,1.0564,0.6932,0.6324,22.996,23.5174,37.6777,91.038,,43.3754,40.5266,0.0319,,,,-99.0,,-99.0,,26.9280,,26.9290,,0.6342,85.3384,,7.519,,3.2118E+02,,1.0000E-12,,5.9201,5.9205,1.0027,,7.606,30.112,,,,,,,,,,,,
CalCOFI,2007SR,045,47,2007_045u,21-Jul-2020 15:14:07,21-Jul-2020 07:14:07,31.65606,-123.06934,086.7 100.0,086.7,100.0,474.000,477.864,,5.9680,,5.9684,,5.9682,34.1962,,34.1964,34.1975,,34.1991,34.1978,0.5336,,0.5399,0.5766,2.0927,,1.0547,0.6914,0.6340,23.207,23.7377,37.8611,91.010,,43.3159,40.5885,0.0326,,,,-99.0,,-99.0,,26.9267,,26.9277,,0.6345,85.3318,,7.519,,3.2306E+02,,1.0000E-12,,5.9267,5.9271,1.0027,,7.677,30.108,,,,,,,,,,,,
CalCOFI,2007SR,045,47,2007_045u,21-Jul-2020 15:14:08,21-Jul-2020 07:14:08,31.65606,-123.06934,086.7 100.0,086.7,100.0,473.000,476.854,,5.9716,,5.9717,,5.9717,34.1953,,34.1955,34.1963,,34.1979,34.1967,0.5394,,0.5459,0.5827,2.0923,,1.0537,0.6903,0.6365,23.460,24.0018,38.0809,90.992,,43.2777,40.6793,0.0334,,,,-99.0,,-99.0,,26.9255,,26.9263,,0.6350,85.3209,,7.519,,3.2372E+02,,1.0000E-12,,5.9304,5.9304,1.0027,,7.761,30.103,,,,,,,,,,,,
CalCOFI,2007SR,045,47,2007_045u,21-Jul-2020 15:14:09,21-Jul-2020 07:14:09,31.65606,-123.06934,086.7 100.0,086.7,100.0,472.000,475.845,,5.9757,,5.9763,,5.9760,34.1936,,34.1938,34.1950,,34.1966,34.1952,0.5376,,0.5440,0.5808,2.0918,,1.0526,0.6890,0.6349,23.382,23.9204,38.0131,90.970,,43.2309,40.6220,0.0326,,,,-99.0,,-99.0,,26.9237,,26.9247,,0.6352,85.3174,,7.521,,3.2288E+02,,1.0000E-12,,5.9345,5.9351,1.0027,,7.736,30.099,,,,,,,,,,,,
CalCOFI,2007SR,045,47,2007_045u,21-Jul-2020 15:14:11,21-Jul-2020 07:14:11,31.65606,-123.06934,086.7 100.0,086.7,100.0,471.000,474.836,,5.9821,,5.9828,,5.9825,34.1928,,34.1930,34.1938,,34.1954,34.1942,0.5431,,0.5498,0.5865,2.0912,,1.0511,0.6875,0.6370,23.618,24.1667,38.2182,90.943,,43.1735,40.6959,0.0327,,,,-99.0,,-99.0,,26.9222,,26.9230,,0.6352,85.3167,,7.522,,3.2112E+02,,1.0000E-12,,5.9410,5.9417,1.0027,,7.815,30.095,,,,,,,,,,,,
CalCOFI,2007SR,045,47,2007_045u,21-Jul-2020 15:14:11,21-Jul-2020 07:14:11,31.65606,-123.06934,086.7 100.0,086.7,100.0,470.000,473.826,,5.9878,,5.9876,,5.9877,34.1923,,34.1925,34.1937,,34.1953,34.1939,0.5437,,0.5504,0.5872,2.0906,,1.0497,0.6859,0.6366,23.644,24.1939,38.2408,90.919,,43.1225,40.6817,0.0323,,,,-99.0,,-99.0,,26.9211,,26.9223,,0.6353,85.3148,,7.522,,3.1992E+02,,1.0000E-12,,5.9468,5.9466,1.0027,,7.825,30.090,,,,,,,,,,,,
CalCOFI,2007SR,045,47,2007_045u,21-Jul-2020 15:14:12,21-Jul-2020 07:14:12,31.65606,-123.06934,086.7 100.0,086.7,100.0,469.000,472.817,,5.9952,,5.9955,,5.9954,34.1915,,34.1917,34.1928,,34.1944,34.1931,0.5445,,0.5512,0.5880,2.0899,,1.0480,0.6841,0.6361,23.681,24.2325,38.2730,90.889,,43.0587,40.6659,0.0317,,,,-99.0,,-99.0,,26.9196,,26.9205,,0.6351,85.3193,,7.523,,3.1992E+02,,1.0000E-12,,5.9542,5.9545,1.0027,,7.839,30.085,,,,,,,,,,,,
CalCOFI,2007SR,045,47,2007_045u,21-Jul-2020 15:14:13,21-Jul-2020 07:14:13,31.65606,-123.06934,086.7 100.0,086.7,100.0,468.000,471.808,,6.0024,,6.0033,,6.0029,34.1915,,34.1917,34.1929,,34.1945,34.1931,0.5472,,0.5541,0.5908,2.0904,,1.0492,0.6854,0.6381,23.799,24.3557,38.3755,90.911,,43.1055,40.7405,0.0321,,,,-99.0,,-99.0,,26.9186,,26.9196,,0.6353,85.3159,,7.524,,3.2101E+02,,1.0000E-12,,5.9615,5.9624,1.0027,,7.879,30.098,,,,,,,,,,,,
CalCOFI,2007SR,045,47,2007_045u,21-Jul-2020 15:14:14,21-Jul-2020 07:14:14,31.65606,-123.06934,086.7 100.0,086.7,100.0,467.000,470.798,,6.0118,,6.0118,,6.0118,34.1911,,34.1913,34.1925,,34.1941,34.1927,0.5500,,0.5570,0.5938,2.0897,,1.0475,0.6836,0.6387,23.920,24.4820,38.4806,90.878,,43.0353,40.7580,0.0318,,,,0.0007,,0.0000,,26.9171,,26.9182,,0.6353,85.3148,,7.524,,3.2233E+02,,1.0000E-12,,5.9709,5.9710,1.0027,,7.921,30.093,,,,,,,,,,,,
CalCOFI,2007SR,045,47,2007_045u,21-Jul-2020 15:14:16,21-Jul-2020 07:14:16,31.65606,-123.06934,086.7 100.0,086.7,100.0,466.000,469.789,,6.0148,,6.0150,,6.0149,34.1911,,34.1913,34.1923,,34.1939,34.1926,0.5498,,0.5568,0.5936,2.0908,,1.0502,0.6865,0.6401,23.909,24.4705,38.4711,90.928,,43.1416,40.8064,0.0328,,,,0.0051,,0.0000,,26.9167,,26.9177,,0.6359,85.3023,,7.524,,3.2360E+02,,1.0000E-12,,5.9740,5.9742,1.0027,,7.918,30.112,,,,,,,,,,,,
CalCOFI,2007SR,045,47,2007_045u,21-Jul-2020 15:14:16,21-Jul-2020 07:14:16,31.65606,-123.06934,086.7 100.0,086.7,100.0,465.000,468.780,,6.0214,,6.0211,,6.0213,34.1903,,34.1905,34.1917,,34.1933,34.1919,0.5535,,0.5607,0.5974,2.0905,,1.0495,0.6857,0.6416,24.073,24.6417,38.6136,90.915,,43.1140,40.8638,0.0333,,,,0.0123,,0.0000,,26.9152,,26.9164,,0.6348,85.3249,,7.524,,3.2182E+02,,1.0000E-12,,5.9807,5.9804,1.0027,,7.973,30.112,,,,,,,,,,,,
CalCOFI,2007SR,045,47,2007_045u,21-Jul-2020 15:14:17,21-Jul-2020 07:14:17,31.65606,-123.06934,086.7 100.0,086.7,100.0,464.000,467.771,,6.0262,,6.0265,,6.0264,34.1893,,34.1895,34.1906,,34.1922,34.1909,0.5564,,0.5637,0.6005,2.0901,,1.0485,0.6846,0.6426,24.197,24.7711,38.7213,90.897,,43.0757,40.8985,0.0330,,,,0.0200,,0.0000,,26.9138,,26.9148,,0.6352,85.3180,,7.524,,3.2165E+02,,1.0000E-12,,5.9856,5.9859,1.0027,,8.015,30.109,,,,,,,,,,,,
CalCOFI,2007SR,045,47,2007_045u,21-Jul-2020 15:14:18,21-Jul-2020 07:14:18,31.65606,-123.06934,086.7 100.0,086.7,100.0,463.000,466.761,,6.0294,,6.0295,,6.0295,34.1889,,34.1891,34.1902,,34.1918,34.1905,0.5572,,0.5645,0.6013,2.0852,,1.0368,0.6720,0.6367,24.231,24.8066,38.7509,90.683,,42.6208,40.6859,0.0324,,,,0.0282,,0.0000,,26.9131,,26.9141,,0.6351,85.3198,,7.524,,3.1995E+02,,1.0000E-12,,5.9889,5.9889,1.0027,,8.027,30.040,,,,,,,,,,,,